Regional Weather Roundup
Issued by NWS

Home | Current Version | Previous Version | Graphics & Text | Print | Product List | Glossary On
Versions: 1 2 3 4 5 6 7 8 9 10 11 12 13 14 15 16 17 18 19 20 21 22 23 24 25 26 27 28 29 30 31 32 33 34 35 36 37 38 39 40 41 42 43 44 45 46 47 48 49 50
000
ASUS44 KMEG 010110
RWRTN
TENNESSEE HOURLY STATE WEATHER ROUNDUP
NATIONAL WEATHER SERVICE MEMPHIS TN
800 PM CDT TUE JUN 30 2015

TNZ002-004-019-021-049-052-054-088>092-010200-
WEST TENNESSEE

CITY           SKY/WX    TMP DP  RH WIND       PRES   REMARKS
MEMPHIS INTL   MOCLDY    82  70  66 SW6       29.94R
NWS MEMPHIS      N/A     81 N/A N/A MISG        N/A
JACKSON        CLEAR     79  70  74 SW5       29.93R
DYERSBURG        N/A    N/A N/A N/A MISG        N/A
PARIS          CLEAR     73  70  88 CALM      29.91S
LEXINGTON      CLEAR     75  72  88 CALM      29.92R
$$

TNZ008-025-027-028-033-062-065-066-010200-
NORTH MIDDLE TENNESSEE

CITY           SKY/WX    TMP DP  RH WIND       PRES   REMARKS
NASHVILLE      CLOUDY    79  69  71 SW5       29.92R
CLARKSVILLE    FAIR      78  69  73 SW3       29.90R
SMYRNA         CLEAR     79  69  71 W7        29.93R
COOKEVILLE     MOCLDY    77  75  94 N3        29.94R
CROSSVILLE     MOCLDY    72  66  81 S3        29.99R
$$

TNZ061-075-076-078-094-096-097-010200-
SOUTH MIDDLE TENNESSEE

CITY           SKY/WX    TMP DP  RH WIND       PRES   REMARKS
FAYETTEVILLE   CLEAR     73  68  83 W6        29.98R
TULLAHOMA      CLEAR     75  66  73 CALM      29.98R
WINCHESTER     PTCLDY    75  70  83 SW5       29.97R
MCMINNVILLE    CLEAR     77  70  78 SW5       29.96R
COLUMBIA       CLEAR     79  73  83 SW5       29.93R
SHELBYVILLE    CLEAR     79  72  78 SW3       29.95R
$$

TNZ017-018-042-046-047-010200-
NORTHEAST TENNESSEE

CITY           SKY/WX    TMP DP  RH WIND       PRES   REMARKS
TRI CITIES     CLOUDY    72  62  71 SW8       29.94R
ELIZABETHTON   CLEAR     66  63  88 CALM      29.96R
$$

TNZ012-013-036-069-073-074-010200-
CENTRAL EAST TENNESSEE

CITY           SKY/WX    TMP DP  RH WIND       PRES   REMARKS
KNOXVILLE      CLOUDY    73  65  75 SW7       29.94R
OAK RIDGE      MOCLDY    73  68  84 CALM      29.96R
GATLINBURG     PTCLDY    72  68  88 CALM      29.93R
MORRISTOWN     CLEAR     73  66  78 W5        29.96R
$$

TNZ083-085-099-010200-
SOUTHEAST TENNESSEE

CITY           SKY/WX    TMP DP  RH WIND       PRES   REMARKS
CHATTANOOGA    CLOUDY    81  68  64 SW6       29.95R
$$

SKY/WX REPORTED AS FAIR MEANS FEW OR NO CLOUDS BELOW
12 THOUSAND FEET.




USA.gov is the U.S. government's official web portal to all federal, state and local government web resources and services.